Location: Bouchavesnes-Bergen
(49.9859°N, 2.9203°E)
Time: 03:33:55
(UTC+00:00)

Envisat - Pass Details

Date: 05 February 2023
Orbit: 763 x 765 km, 98.2° (Epoch: 30 March)

Event Time Altitude Azimuth Distance (km) Brightness Sun altitude
Rises 04:26:10 0° 11° (NNE) 3,246 6.5 -27.6°
Reaches altitude 10° 04:28:30 10° 9° (N) 2,315 5.6 -27.2°
Enters shadow 04:31:56 42° 352° (N) 1,096 3.7 -26.7°
